[[{"header":{"parameterUnit":"m.s-1","parameterCategory":1,"la1":30.2991,"la2":30.254,"lo1":-89.0895,"lo2":-89.0444,"dy":0.0017,"dx":0.0017,"nx":28,"ny":28,"refTime":"2025-04-27T09:00:00:Z","depth":0,"parameterNumber":2,"parameterNumberName":"U-component_of_WINDS"},"data":[0,0,0,0,0,0,0,0,0,0,0,0,0,0,0,0,0,0,0,0,0,0,0,0,0,0,0,0,0,0,0,0,0,0,0,0,0,0,0,0,0,0,0,0,0,0,0,0,0,0,0,0,0,0,0,0,0,0,1.0477,1.0478,0,1.0554,1.0555,1.0556,1.0555,1.0554,1.0553,1.0552,1.0632,1.0635,1.0638,0,0,0,0,0,0,0,0,0,0,0,0,0,1.0327,1.0329,1.0477,1.0478,1.0479,1.0554,1.0555,1.0556,1.0555,1.0554,1.0553,1.0552,1.0631,1.0635,1.0639,0,0,0,0,0,0,0,0,0,0,0,0,0,1.0397,1.033,1.0476,1.0487,1.0489,1.0554,1.0555,1.0557,1.0556,1.0554,1.0552,1.0551,1.063,1.0635,1.0639,1.0699,0,0,1.0653,1.0655,0,0,0,0,0,0,0,0,1.0393,1.0402,1.0485,1.0487,1.0489,1.0543,1.0532,1.0604,1.0556,1.053,1.0552,1.055,1.0604,1.0611,1.0629,1.0703,1.0706,1.0654,1.0657,1.0659,1.066,0,0,0,0,0,0,0,1.0388,1.0399,1.0507,1.0486,1.0488,1.0488,1.0496,1.0546,1.0575,1.0532,1.0532,1.0542,1.0605,1.0624,1.0631,1.0707,1.0654,1.0658,1.0661,1.0663,1.0832,1.0833,0,0,0,0,0,0,1.0381,1.0395,1.0505,1.051,1.0436,1.0492,1.0501,1.0527,1.0574,1.058,1.0543,1.0541,1.0617,1.0625,1.0633,1.0705,1.0659,1.0663,1.0666,1.083,1.0832,1.0834,0,0,0,0,0,0,1.0378,1.0391,1.0502,1.0452,1.0466,1.0496,1.0526,1.053,1.0549,1.0582,1.0588,1.0557,1.0616,1.0627,1.0682,1.0708,1.0665,1.0669,1.0828,1.0831,1.0833,1.0849,0,0,0,0,0,0,1.0373,1.039,1.0413,1.0453,1.0469,1.055,1.0527,1.0532,1.0557,1.0556,1.0597,1.0603,1.0616,1.0675,1.0687,1.0713,1.0673,1.0826,1.0829,1.0832,1.0846,1.0852,1.0857,0,0,0,0,0,1.0368,1.0415,1.0414,1.0427,1.0499,1.0551,1.056,1.0574,1.0559,1.0583,1.0603,1.0601,1.0703,1.0681,1.0694,1.0722,1.0824,1.0828,1.0832,1.0844,1.0851,1.0856,0,0,0,0,0,0,1.0378,1.0421,1.042,1.0482,1.0513,1.0551,1.0581,1.0581,1.0617,1.0615,1.063,1.064,1.0694,1.0714,1.0689,1.0781,1.0762,1.0768,1.0766,1.0773,1.0778,1.0772,1.0677,0,0,0,0,0,1.0388,1.0426,1.0461,1.0512,1.0528,1.0551,1.0575,1.0582,1.0615,1.0629,1.0654,1.0686,1.0725,1.075,1.0788,1.0849,1.0857,1.0875,1.088,1.0884,1.0889,1.0921,1.0929,1.0847,1.0847,1.0847,0,0,1.0408,1.0435,1.0459,1.0515,1.054,1.0579,1.0563,1.0605,1.0634,1.0635,1.0688,1.0708,1.0744,1.0802,1.0829,1.082,1.0914,1.0889,1.0892,1.0895,1.0926,1.0933,1.094,1.0849,1.0849,1.0848,0,0,1.0463,1.0489,1.0533,1.0558,1.0595,1.0611,1.0621,1.0659,1.0671,1.0725,1.0726,1.076,1.0828,1.0853,1.0875,1.0938,1.0936,1.095,1.0976,1.1007,1.1013,1.1019,1.104,1.1047,1.0955,1.0955,1.0955,0,1.0484,1.0543,1.0556,1.0598,1.0622,1.0623,1.0667,1.0691,1.0739,1.0755,1.0745,1.0827,1.0853,1.0915,1.093,1.0948,1.096,1.0945,1.1011,1.1017,1.1023,1.1043,1.1051,1.0956,1.0956,1.0956,1.0956,0,1.0564,1.0605,1.0636,1.0681,1.0709,1.0752,1.0771,1.0797,1.0802,1.0818,1.0871,1.0901,1.0943,1.0959,1.0965,1.1022,1.1015,1.1008,1.0988,1.1031,1.105,1.1058,1.0958,1.0958,1.0957,1.0957,0,0,1.063,1.068,1.0691,1.0711,1.0751,1.0783,1.0825,1.0866,1.0888,1.092,1.0955,1.1011,1.1004,1.1028,1.1037,1.1064,1.1109,1.1053,1.1054,1.1061,1.1172,1.1177,1.1185,1.1109,1.1111,1.1112,1.1168,0,1.0689,1.0764,1.0776,1.0841,1.0878,1.0879,1.0916,1.0944,1.096,1.0993,1.1011,1.1049,1.1037,1.1052,1.1079,1.1098,1.1132,1.1094,1.1141,1.1142,1.1131,1.1196,1.1201,1.1253,1.1176,1.1178,1.1178,0,1.0768,1.0801,1.087,1.0904,1.0919,1.0952,1.0989,1.1022,1.1053,1.1063,1.1089,1.1094,1.1137,1.1115,1.1174,1.1148,1.1168,1.118,1.1182,1.1187,1.1162,1.12,1.1271,1.1278,1.1191,1.119,1.1189,0,1.0807,1.0869,1.0918,1.0935,1.0975,1.0998,1.1016,1.1046,1.1069,1.1102,1.1117,1.1154,1.1175,1.1203,1.1218,1.1201,1.1275,1.1255,1.1283,1.1282,1.1298,1.1297,1.1371,1.1312,1.1312,1.1312,1.1312,0,1.0871,1.0913,1.0935,1.0965,1.1011,1.1024,1.107,1.1087,1.1113,1.1146,1.115,1.118,1.1198,1.123,1.1242,1.1288,1.1297,1.1305,1.1308,1.1305,1.1303,1.1317,1.1313,1.1314,1.1314,1.1313,1.1313,0,1.0922,1.0939,1.0992,1.1025,1.1035,1.1067,1.1095,1.1124,1.1139,1.118,1.119,1.1213,1.1252,1.1269,1.1317,1.1325,1.1376,1.1377,1.1366,1.1366,1.1392,1.1389,1.1477,1.1489,1.1424,1.1424,1.1425,0,1.0962,1.0993,1.1029,1.1051,1.1069,1.1105,1.1128,1.1141,1.1165,1.1202,1.1226,1.1264,1.1296,1.1357,1.1379,1.1415,1.1415,1.1444,1.1421,1.1416,1.1414,1.1411,1.1414,1.1448,1.1448,1.1449,1.1449,0,1.1029,1.1035,1.1068,1.1104,1.1131,1.116,1.1188,1.1205,1.1223,1.125,1.1289,1.1313,1.1361,1.1398,1.1435,1.1454,1.1454,1.1456,1.1464,1.1461,1.1452,1.1456,1.1376,1.1454,1.1454,1.1453,1.1453,1.1453,1.1075,1.1102,1.1131,1.1167,1.1189,1.1215,1.1242,1.126,1.1293,1.1332,1.1338,1.1379,1.1408,1.1458,1.1477,1.1509,1.1502,1.1514,1.1517,1.152,1.152,1.1448,1.1516,1.1516,1.1516,1.1516,1.1516,0,1.1141,1.1159,1.1192,1.123,1.1258,1.1255,1.1286,1.1309,1.1345,1.1372,1.1402,1.1446,1.1482,1.1505,1.1541,1.1562,1.1563,1.1571,1.1569,1.1573,1.1525,1.1514,1.157,1.157,1.157,1.157,1.157,1.157,1.1178,1.1224,1.1233,1.1289,1.1307,1.1347,1.1364,1.1387,1.1408,1.1457,1.1486,1.1501,1.1526,1.1563,1.1596,1.1602,1.1614,1.1622,1.1628,1.1583,1.1577,1.1572,1.1561,1.1625,1.1625,1.1673,1.1673,1.1674]},{"header":{"parameterUnit":"m.s-1","parameterCategory":1,"la1":30.2991,"la2":30.254,"lo1":-89.0895,"lo2":-89.0444,"dy":0.0017,"dx":0.0017,"nx":28,"ny":28,"refTime":"2025-04-27T09:00:00:Z","depth":0,"parameterNumber":3,"parameterNumberName":"V-component_of_WINDS"},"data":[0,0,0,0,0,0,0,0,0,0,0,0,0,0,0,0,0,0,0,0,0,0,0,0,0,0,0,0,0,0,0,0,0,0,0,0,0,0,0,0,0,0,0,0,0,0,0,0,0,0,0,0,0,0,0,0,0,0,2.2682,2.2681,0,2.2654,2.2654,2.2653,2.2594,2.2593,2.2591,2.259,2.2562,2.2562,2.2563,0,0,0,0,0,0,0,0,0,0,0,0,0,2.2683,2.2683,2.2682,2.2681,2.2681,2.2654,2.2654,2.2653,2.2594,2.2593,2.2591,2.259,2.2562,2.2562,2.2563,0,0,0,0,0,0,0,0,0,0,0,0,0,2.2671,2.2683,2.2682,2.2648,2.2645,2.2654,2.2654,2.2653,2.2594,2.2593,2.2591,2.2589,2.2562,2.2562,2.2563,2.2602,0,0,2.2565,2.2565,0,0,0,0,0,0,0,0,2.2672,2.2671,2.2653,2.2651,2.2647,2.2625,2.2643,2.2636,2.2595,2.2614,2.259,2.2588,2.2585,2.2583,2.2582,2.2601,2.26,2.2565,2.2565,2.2565,2.2565,0,0,0,0,0,0,0,2.2673,2.2672,2.2671,2.2653,2.2649,2.2634,2.2631,2.2642,2.261,2.2612,2.2607,2.2605,2.2582,2.2582,2.2581,2.2599,2.2565,2.2565,2.2565,2.2566,2.2648,2.2649,0,0,0,0,0,0,2.2679,2.2673,2.2672,2.267,2.2655,2.2636,2.2632,2.2634,2.2609,2.2604,2.2607,2.2602,2.2581,2.258,2.258,2.2623,2.2565,2.2566,2.2566,2.2646,2.2648,2.265,0,0,0,0,0,0,2.2679,2.2679,2.2673,2.267,2.2668,2.2638,2.2641,2.2635,2.2634,2.2605,2.2599,2.2612,2.258,2.2579,2.2597,2.2621,2.2566,2.2566,2.2644,2.2647,2.2649,2.2711,0,0,0,0,0,0,2.2679,2.2679,2.2695,2.2671,2.2669,2.2691,2.2642,2.2635,2.2635,2.2629,2.2608,2.2603,2.2578,2.2596,2.2597,2.2621,2.2567,2.2641,2.2645,2.2648,2.2707,2.2716,2.2724,0,0,0,0,0,2.2679,2.2714,2.2696,2.2696,2.2687,2.2692,2.2691,2.2662,2.2637,2.2651,2.2633,2.2604,2.2619,2.2599,2.2599,2.2624,2.264,2.2644,2.2648,2.2703,2.2714,2.2724,0,0,0,0,0,0,2.2741,2.271,2.269,2.2717,2.2708,2.2682,2.27,2.2675,2.2672,2.2667,2.2631,2.2626,2.2649,2.2638,2.2616,2.266,2.2624,2.2629,2.2666,2.2676,2.2684,2.2687,2.2567,0,0,0,0,0,2.2758,2.2765,2.2737,2.2764,2.2761,2.2731,2.2733,2.2711,2.27,2.2695,2.2678,2.2668,2.267,2.2673,2.2673,2.2705,2.2699,2.2722,2.273,2.2737,2.2742,2.2756,2.2766,2.2664,2.2664,2.2664,0,0,2.2793,2.2777,2.2783,2.2776,2.2766,2.2774,2.2728,2.2739,2.2744,2.2697,2.2713,2.27,2.2686,2.2711,2.2721,2.2702,2.2768,2.2743,2.2748,2.2749,2.2762,2.2771,2.278,2.2667,2.2666,2.2666,0,0,2.286,2.2849,2.287,2.286,2.2846,2.2826,2.2831,2.2809,2.2798,2.2813,2.2778,2.2783,2.2788,2.2779,2.2776,2.2838,2.2811,2.284,2.2883,2.2898,2.2906,2.2913,2.2935,2.2943,2.2844,2.2844,2.2844,0,2.2905,2.2916,2.2884,2.2896,2.2894,2.2851,2.2871,2.2863,2.285,2.2849,2.2829,2.2833,2.2821,2.2842,2.2857,2.2856,2.286,2.2842,2.2907,2.2914,2.292,2.294,2.2949,2.2848,2.2847,2.2847,2.2847,0,2.2972,2.2979,2.2998,2.2985,2.2985,2.3002,2.2971,2.2974,2.2952,2.2934,2.295,2.2933,2.2929,2.2933,2.2912,2.2951,2.294,2.2914,2.2878,2.2934,2.2952,2.296,2.2853,2.2851,2.285,2.2849,0,0,2.3078,2.3046,2.3054,2.3047,2.3027,2.3032,2.3046,2.3042,2.3045,2.3037,2.3047,2.3052,2.3027,2.3023,2.3,2.3013,2.3063,2.2985,2.2985,2.3,2.3104,2.3124,2.3133,2.3045,2.3046,2.3047,2.3105,0,2.3141,2.3163,2.3133,2.3162,2.3168,2.3127,2.3139,2.3128,2.3111,2.3113,2.3095,2.3098,2.3066,2.3063,2.3074,2.3055,2.3083,2.305,2.3053,2.3054,2.3058,2.3143,2.3164,2.3219,2.3112,2.3113,2.3114,0,2.3217,2.3212,2.3241,2.3218,2.3219,2.3231,2.3224,2.3227,2.3213,2.3199,2.3194,2.3167,2.3178,2.3143,2.3157,2.3136,2.3135,2.3126,2.3127,2.3126,2.3088,2.3144,2.3237,2.3245,2.3125,2.3124,2.3124,0,2.3291,2.3291,2.3308,2.3304,2.3278,2.3286,2.3276,2.326,2.3259,2.3253,2.3251,2.3247,2.3244,2.3241,2.3213,2.319,2.323,2.3193,2.3219,2.322,2.323,2.323,2.3324,2.323,2.323,2.323,2.323,0,2.3363,2.3383,2.3341,2.3351,2.3371,2.3337,2.3358,2.3343,2.3329,2.3335,2.3299,2.3306,2.3268,2.3271,2.3249,2.3264,2.3263,2.3252,2.3246,2.3255,2.3256,2.3254,2.325,2.3232,2.3232,2.3231,2.3231,0,2.3449,2.3422,2.3438,2.3411,2.3405,2.3421,2.3398,2.3406,2.3387,2.3396,2.3396,2.3365,2.3366,2.3337,2.3332,2.3317,2.3342,2.3329,2.3347,2.3342,2.337,2.3368,2.3466,2.3476,2.3377,2.3378,2.3379,0,2.3498,2.3511,2.3486,2.3488,2.3479,2.3482,2.348,2.3447,2.3447,2.3431,2.3441,2.3439,2.3436,2.3439,2.3416,2.3412,2.3398,2.3433,2.3397,2.3406,2.3398,2.3397,2.3398,2.344,2.3441,2.3442,2.3443,0,2.3586,2.3571,2.357,2.3565,2.3563,2.3557,2.3549,2.3552,2.3515,2.3517,2.3517,2.3514,2.3509,2.3507,2.3498,2.3487,2.3459,2.3455,2.346,2.347,2.3479,2.3474,2.3367,2.3453,2.3452,2.3451,2.345,2.345,2.3654,2.3664,2.3647,2.3647,2.3637,2.3629,2.3636,2.3616,2.3616,2.3609,2.3589,2.3593,2.3577,2.3562,2.3553,2.3555,2.3538,2.3546,2.3548,2.3551,2.3556,2.3479,2.3553,2.3553,2.3553,2.3552,2.3552,0,2.3739,2.3726,2.3727,2.3716,2.3715,2.3689,2.3677,2.3679,2.3682,2.367,2.3667,2.3667,2.3665,2.3641,2.3636,2.3642,2.3629,2.3641,2.3641,2.3638,2.3572,2.3567,2.3652,2.3652,2.3652,2.3652,2.3652,2.3652,2.3784,2.3799,2.3782,2.3791,2.3778,2.3781,2.3777,2.377,2.3759,2.3761,2.3759,2.3743,2.3726,2.3719,2.3715,2.3708,2.3708,2.3725,2.3714,2.3653,2.3643,2.3634,2.3629,2.3725,2.3725,2.3779,2.378,2.378]}]]